Reflectivity
21 19 18 18 16 16 9 6 19 35 30 35 37 33 26 4 -14 32 31 6 14 10 -5 5 -8 -17 -20 -20 10 9 8 10 23 27 27 14 7 -20 -20 -20 -20 -20 -18 -20 -6 7 -8 -20 -20 -20 -20 -20 -20 -20
20 -3 -9 18 16 17 10 10 22 37 30 34 36 30 33 33 32 20 23 27 33 -3 -1 4 3 8 -9 -6 20 10 10 13 21 23 22 17 5 -14 -20 -16 -20 -4 -19 -20 -20 -20 -20 -20 -15 23 -3 -15 -20 -18
10 13 15 23 18 11 -10 -19 9 29 30 34 37 38 32 28 28 30 32 25 28 24 18 23 28 25 -10 -2 -0 8 21 26 24 23 22 23 30 18 -2 -2 -0 -16 0 11 20 6 -5 17 17 13 15 -18 -20 -20
9 12 10 18 11 -10 -20 -20 7 24 28 28 34 38 36 35 32 25 28 28 12 22 32 30 22 25 26 27 29 23 26 29 29 22 29 31 29 24 13 20 17 21 23 28 21 28 26 31 24 38 10 -5 -14 13
-17 -4 12 17 9 12 -20 -20 13 18 28 32 33 35 37 37 37 36 26 21 16 22 28 30 27 30 30 25 13 22 30 34 28 22 28 28 33 34 32 30 25 26 35 35 31 21 29 27 18 -3 18 -7 -19 -20
-4 17 13 11 13 -19 -20 -20 -20 21 25 15 23 28 30 29 32 34 40 38 37 35 19 22 33 29 27 30 29 32 34 35 32 36 29 36 27 24 21 15 2 22 24 21 12 3 -19 -20 -20 -19 -20 -20 -17 -20
4 18 12 10 9 -14 -20 -20 -20 13 19 19 20 29 27 24 20 22 29 31 29 28 27 19 19 27 28 29 32 30 27 31 27 27 29 29 24 11 -7 -20 -7 16 14 -4 -9 -20 -20 -20 -20 -20 -20 -20 -20 -20
-9 -9 15 14 -10 -20 -20 -20 -6 -3 13 18 21 25 19 17 13 18 23 22 21 20 18 19 15 22 21 27 31 25 24 18 21 13 6 2 6 -20 -20 -20 -16 -20 -20 -20 -20 -20 -20 -20 -20 -20 -20 -20 -20 -20
-2 -20 -20 -1 7 -20 -20 -7 8 11 11 8 15 9 -14 -3 15 21 18 10 9 8 5 -1 -2 0 11 19 3 1 -2 -14 -12 -7 -7 -12 -19 -20 -20 -20 -20 -20 -20 -20 -20 -20 -20 -20 -20 -20 -20 -20 -20 -20
-16 14 -19 -19 -19 15 7 5 4 -1 12 11 -20 -20 14 -9 -2 -13 3 8 9 8 8 8 9 4 -1 1 -6 -15 -19 -17 -20 -20 -11 -19 -20 -20 -20 -20 -20 -20 -20 -20 -20 -20 -20 -20 -20 -20 -20 -20 -20 -20
27 17 15 2 2 11 13 -4 -20 10 -1 -16 15 18 8 3 -20 -20 -19 -20 -12 -9 -5 -1 -3 4 1 -4 -6 -4 -6 -15 -20 -20 -20 -20 -15 -16 -20 -20 -20 -20 -20 -20 -20 -20 -20 -20 -20 -20 -19 -7 -9 -7
14 22 22 23 -6 28 30 26 23 25 11 -20 8 15 -1 -11 -20 -20 -20 -7 -20 -13 -20 -20 -20 -20 -13 -13 -18 -20 -17 -20 -20 -20 -20 -20 -20 -20 -20 -20 -20 -20 -20 -20 -20 -20 -20 -4 -20 -5 -16 -13 -20 -20
-1 -8 14 16 13 1 0 0 15 -2 -20 -3 5 -20 -20 -20 -20 -20 -20 -20 5 -20 -20 -19 -20 -20 -20 -20 -20 -20 -20 -20 -20 -20 -20 -20 -20 -20 -20 -20 -20 -20 -20 -20 -19 -20 5 16 6 -16 -18 -20 -19 -20
-1 5 -11 -4 24 -20 12 19 -9 -18 -20 -20 -19 -20 -20 -20 -20 10 -20 -20 -20 -20 -20 -20 -20 -20 -20 -20 -20 -20 -20 -20 -20 -20 -20 -20 -20 -20 -20 -20 -20 -20 -20 -20 -20 -20 -16 -20 -20 -20 -20 -20 -20 -20
-20 -20 -20 -20 -20 -20 -10 -13 -20 -20 -20 -20 -20 -20 -20 -20 -11 -14 23 -1 -20 24 -20 -20 -20 -20 -20 -20 -20 -20 -20 -20 -20 -20 -20 -20 -20 -20 -20 -20 -20 -20 -20 -20 -20 -20 -20 -20 -20 -20 -20 -20 -20 -20
-20 -20 -20 -20 -20 -20 -20 -20 -20 -20 -20 -16 -20 -20 -20 -20 -20 -20 -20 -20 -11 -19 -20 -20 -20 -20 -20 -20 -20 -20 -20 -20 -20 -20 -20 -20 -20 -20 -20 -20 -20 -20 -20 -20 -20 -20 -20 -20 -20 -20 -20 -20 -20 -20
-20 -20 -20 -20 -20 -20 -20 -20 -20 -20 -20 -14 -20 -20 -20 -20 -20 -20 -20 -20 -20 -20 -20 -20 -20 -20 -20 -20 -20 -20 -20 -20 -20 -20 -20 -20 -20 -20 -20 -20 -20 -14 -4 -20 -20 -20 -20 -20 -20 -20 -20 -20 -20 -20
-13 -20 -20 -20 -20 -20 -20 -20 -20 -20 -20 -20 -20 -20 -20 -20 -20 -20 -11 -20 -19 -20 -14 -10 -20 -20 -20 -20 -20 -20 -20 -20 -20 -20 -20 -20 -20 -20 -20 2 -19 -20 -20 -20 -20 -20 -20 -20 -20 -20 -20 -20 -20 -20
-20 -20 -20 -20 -20 -20 -20 -20 -20 -20 -20 -20 -20 -20 -20 -20 -20 -20 -20 -20 -20 -20 -20 -20 -20 -20 -20 -20 -20 -20 -20 -20 -20 -20 -20 -20 -20 -20 -11 -8 -20 -20 -20 -20 -20 -20 -20 -20 -20 -20 -20 -20 -20 -20
-20 -20 -20 -20 -20 -20 -20 -20 -20 -20 -20 -20 -20 -20 -20 -20 -20 -20 -20 -20 -20 -20 -20 -20 -20 -20 -20 -20 -20 -20 -20 -20 -20 -20 -20 -20 -20 -20 -15 -20 -20 -20 -20 -20 -20 -17 -20 -20 -20 -20 -20 -20 -20 -20
-20 -20 -20 -20 -20 -20 -20 -20 -20 -20 -20 -20 -20 -20 -20 -20 -20 -20 -20 -20 6 -20 -20 -20 -20 -20 -20 -20 -20 -20 -20 -20 -20 -20 -20 -20 -9 -5 5 -20 -20 -20 -20 -20 -20 -20 -20 -20 -20 -20 -20 -20 -20 -20
-15 -20 -20 -20 -20 -20 -20 -20 -20 -20 -20 -20 -17 -20 -20 -20 -20 -20 -20 -16 -20 -20 -20 -20 -20 -20 -20 -20 -20 -20 -20 -20 -20 -20 -20 -5 -20 -20 -20 -20 -20 -20 -19 -20 -20 -20 -20 -20 -20 -20 -20 -20 -20 -20
-20 -20 -20 -20 -20 -20 -20 -20 -20 -20 -7 -20 -20 -10 -13 -20 -20 -20 -8 -20 -20 -20 -20 -20 -20 -20 -20 -20 -20 -20 -20 -20 -20 -20 -19 -20 -20 -20 -20 -20 -20 -20 -20 -20 -20 -20 -20 -20 -20 -20 -20 -20 -20 -20
-20 -20 -20 -20 -20 -20 -20 -20 -20 -20 -20 -20 -19 -19 -20 -20 -20 12 6 -20 -20 -20 -20 -20 -20 -20 -4 -20 -20 -20 -20 -20 -20 -20 -15 -10 -20 -20 -20 -19 -11 -7 -20 -20 -20 -20 -20 -20 -20 -20 -20 -20 -20 -20
-9 -20 -20 -20 -20 -19 -20 -20 -20 -20 -20 -20 -13 7 -20 -20 -7 -20 -20 -20 -20 -20 -20 -20 -20 8 -20 -20 -20 -20 -20 -20 -20 -20 -20 -20 -20 -20 -20 -20 -20 -19 -20 -20 -20 -20 -20 -20 -20 -20 -20 -20 -20 -20
-8 -20 -20 -20 -20 -18 -20 -20 -20 -20 -20 -20 -20 -20 -20 -20 -20 -20 -20 -20 -20 -20 -2 -20 -4 2 -20 -20 -20 -20 -20 -20 -20 -20 -20 -20 -20 -20 -20 -20 -20 -16 -20 -20 -20 -20 -20 -20 -20 -20 -20 -20 -20 -20
-20 -20 -20 -20 -20 -20 -20 -20 -20 -20 -20 -20 -20 -20 -20 -20 -20 -20 -20 -20 -20 -20 -20 -20 -20 4 -8 -20 -20 -20 -20 -20 -20 -20 -20 -20 -20 -20 -20 -20 -20 -20 -20 -20 -20 -20 -20 -20 -20 -20 -20 -20 -20 -20
-20 -20 -19 -20 -20 -20 -20 -17 -18 -5 -20 -11 4 -20 -20 -20 -20 -20 -20 -20 -20 -20 -20 -20 -20 -20 -20 -20 -20 -20 -20 -20 -20 -20 -20 -20 -20 -20 -20 -20 -20 -20 -20 -20 -20 -20 -20 -20 -20 -20 -20 -20 -20 -20
0 -19 -6 -20 -20 -20 -20 -20 -20 -20 -20 -20 -20 -20 -20 -20 -20 -20 -20 -20 -20 -20 -20 -20 -20 -20 -20 -20 -20 -20 -20 -20 -20 -20 -20 -20 -20 -12 -20 -20 -20 -20 -20 -20 -20 -20 -20 -20 -20 -20 -20 -20 -20 -20
-20 -4 9 -20 -20 -20 -17 -18 -5 -20 -20 -20 -20 -20 -20 -20 -20 -20 -20 -20 -20 -20 -20 -20 -20 -20 -20 -20 -20 -20 -20 -20 -20 -20 -20 -20 -20 -20 -20 -20 -20 -20 -20 -20 -20 -20 -20 -20 -20 -20 -20 -20 -20 -20
-3 -9 1 6 -20 -20 -20 -20 -20 -20 -20 -20 -20 -20 -20 -20 -20 -20 -20 -20 -20 -20 -15 -20 -20 -20 -20 -20 -20 -20 -20 -20 -20 -20 -20 -20 -20 -20 -20 -20 -20 -20 -20 -20 -20 -20 -20 -20 -20 -20 -20 -20 -20 -20
-14 4 7 9 7 -20 -5 -11 -20 -20 -20 -20 -20 -20 -20 -20 -20 -20 -20 -19 -18 -18 8 -3 -15 -20 -20 -20 -20 -20 -20 -20 -20 -20 -20 -20 -20 -20 -20 -20 -20 -20 -20 -20 -20 -20 -20 -20 -20 -20 -20 -20 -20 -20
-5 -7 5 15 11 -20 -20 -9 -1 -16 -20 -20 -4 -20 -16 -18 -20 -20 -20 -20 -20 -18 -20 -20 -20 -20 -20 -20 -20 -20 -20 -20 -20 -20 -20 -20 -20 -20 -20 -20 -20 -20 -20 -20 -20 -20 -20 -20 -20 -20 -20 -20 -20 -20
Wind_Speed
28 27 25 23 22 20 16 17 16 10 7 7 13 25 10 28 40 8 5 6 6 5 3 8 6 3 5 14 15 6 3 4 3 6 9 6 5 7 6 17 17 12 9 13 11 12 27 3 5 18 5 12 13 13
27 26 23 19 17 16 12 11 13 9 10 3 8 18 23 18 20 12 6 5 7 10 4 3 7 7 6 3 7 4 3 4 3 5 3 4 1 1 9 17 12 17 14 11 13 9 2 6 12 5 8 4 5 5
25 25 21 15 12 8 8 6 9 6 14 4 9 12 19 23 19 9 7 5 7 6 5 5 5 6 10 7 4 9 2 5 3 2 4 2 3 3 7 11 5 13 6 9 3 8 6 8 7 5 2 3 3 2
25 23 20 12 6 6 6 2 6 2 17 10 12 11 18 21 24 16 8 3 8 6 6 3 4 6 4 11 17 14 11 9 5 2 4 3 2 1 0 2 3 2 2 1 2 3 7 10 2 4 1 4 2 5
27 25 9 4 8 12 6 2 3 7 15 15 15 12 21 22 22 14 8 8 7 7 5 4 6 6 6 11 15 14 12 7 3 4 3 3 2 3 1 1 3 2 2 2 3 5 6 8 8 6 5 5 5 4
26 21 14 15 14 12 9 5 6 12 14 14 14 15 21 18 12 4 6 4 5 4 6 4 3 3 5 7 12 12 9 4 3 3 2 3 5 4 3 3 6 8 6 1 3 4 4 5 7 6 7 7 6 6
22 19 18 15 14 13 10 9 8 12 15 15 16 18 17 12 7 5 3 5 2 3 6 5 3 3 1 7 3 4 5 3 3 2 2 3 3 6 2 4 4 7 6 7 8 6 7 3 5 7 8 6 5 3
18 17 15 14 12 11 9 9 11 14 19 22 20 18 16 14 7 7 6 9 4 4 4 5 3 2 2 3 3 2 3 2 2 3 1 2 3 2 5 9 4 6 6 5 6 7 8 6 3 6 6 4 6 5
19 13 13 13 12 10 9 10 14 20 24 22 18 15 8 6 4 3 9 10 4 4 4 3 7 4 3 2 2 2 3 3 2 2 2 3 2 6 8 5 6 4 3 3 5 6 8 6 5 6 6 5 6 6
22 17 11 11 11 13 13 15 20 24 20 14 8 5 3 2 10 8 8 5 6 4 3 3 5 4 5 4 2 3 1 4 3 5 3 2 4 10 6 5 5 7 5 5 4 5 6 7 10 12 11 10 10 10
23 22 19 17 17 16 15 19 22 13 4 4 3 3 4 1 4 3 3 2 0 2 0 1 5 9 3 4 3 3 4 2 2 4 5 3 4 2 8 9 8 8 9 10 9 9 8 8 8 9 9 8 8 8
19 20 21 20 16 13 10 5 4 2 1 6 7 3 1 1 2 4 2 2 2 3 2 5 6 4 2 4 4 2 3 2 3 5 4 1 3 6 8 10 10 9 10 11 10 9 8 8 7 7 7 7 7 7
17 13 16 17 17 16 14 8 12 17 8 2 4 3 2 0 2 3 4 2 3 3 3 3 4 3 3 3 3 3 3 4 3 3 4 5 6 6 9 10 11 9 9 10 9 7 8 10 10 8 9 8 9 9
19 16 9 13 10 10 11 10 2 6 3 2 3 3 2 1 2 1 1 4 2 6 9 5 3 4 2 4 3 4 3 4 2 2 5 3 5 7 7 7 9 8 8 8 9 9 8 10 10 9 8 8 9 9
18 16 10 14 12 9 6 8 8 1 3 2 4 2 3 2 3 3 2 5 4 6 5 4 4 4 1 3 1 3 2 3 5 5 4 3 7 8 8 7 8 7 7 7 8 7 7 8 8 8 6 7 9 9
22 8 7 13 16 16 13 7 4 4 2 1 2 4 1 5 2 3 4 3 3 2 3 3 3 3 3 4 3 5 5 5 4 3 3 5 7 8 8 6 6 7 8 7 6 6 6 6 6 7 6 6 5 6
16 4 14 18 19 17 8 2 2 2 2 2 1 2 4 4 4 3 2 1 2 3 2 2 4 6 3 2 3 4 5 3 5 3 3 6 7 8 8 6 5 6 9 8 6 6 6 6 7 6 6 4 5 5
4 9 18 20 15 5 2 1 2 2 1 2 3 1 2 3 4 2 2 1 3 1 2 1 0 2 4 4 2 3 3 2 4 4 4 7 7 7 7 7 5 6 8 7 6 5 5 6 6 3 5 5 5 5
9 11 17 17 9 3 1 2 1 1 3 2 2 3 4 2 2 3 2 3 1 2 2 3 1 2 3 2 3 2 6 4 5 2 4 6 8 9 8 7 7 7 7 6 5 4 4 7 6 5 4 4 5 5
19 17 15 9 6 3 2 2 2 1 2 4 3 2 4 3 4 3 2 1 2 1 1 2 4 3 3 2 2 4 4 7 8 5 3 4 6 8 7 7 5 6 4 5 5 6 4 5 4 4 4 5 6 4
8 3 3 1 3 3 3 1 2 3 2 2 3 4 2 4 4 3 2 1 1 3 3 4 3 1 3 2 2 4 6 7 5 5 5 6 4 6 4 4 6 4 4 4 5 5 5 4 4 5 5 3 3 3
3 10 2 3 2 2 3 3 2 3 2 2 2 3 3 2 2 3 4 2 4 4 4 3 3 4 3 2 1 4 7 7 6 8 8 10 7 5 6 6 6 5 5 5 5 6 5 4 5 5 5 3 4 3
10 3 3 4 1 2 6 3 1 3 3 2 4 3 2 2 5 4 2 4 5 4 4 4 5 4 5 5 4 5 6 9 7 7 8 6 5 5 5 4 4 6 5 4 5 6 5 5 6 5 3 4 4 3
4 2 1 2 4 4 1 2 2 2 2 3 4 2 3 4 2 2 4 4 4 4 5 7 4 4 3 5 3 3 3 5 6 6 8 6 5 3 5 4 4 4 6 6 7 5 4 4 5 4 4 5 5 5
2 5 3 5 3 3 3 2 3 2 4 4 3 2 2 2 2 3 4 4 3 4 5 5 5 6 5 3 2 2 5 6 8 8 7 7 5 5 5 4 4 5 7 8 6 6 4 3 4 4 4 6 7 6
5 5 7 6 3 5 5 4 4 4 3 2 3 1 3 3 1 5 3 2 4 2 1 5 5 5 4 5 6 5 6 4 6 7 4 10 9 9 9 9 6 1 3 7 9 8 6 6 7 8 6 6 8 8
4 6 4 4 2 2 2 3 3 3 4 4 3 3 3 2 5 5 1 3 2 2 2 1 1 5 5 5 4 4 5 5 5 5 5 5 5 7 9 9 9 6 5 6 7 8 8 8 7 7 6 3 4 6
5 3 6 4 1 2 2 1 2 3 3 2 5 4 7 7 4 0 1 2 2 2 4 5 6 4 4 6 8 10 10 10 12 12 10 9 7 5 6 6 8 11 6 6 7 7 8 7 8 8 7 6 4 4
3 3 4 2 2 2 3 5 4 3 3 3 5 4 3 2 1 2 1 1 3 1 2 4 5 6 7 6 5 6 10 12 13 14 12 6 3 2 4 8 7 6 6 7 8 8 10 9 10 9 8 6 5 5
4 2 3 4 5 5 4 2 0 3 3 1 2 2 3 2 1 1 2 2 2 2 2 4 3 4 6 7 7 6 3 2 5 8 9 8 6 8 7 7 8 7 7 8 9 11 16 12 11 7 7 6 5 4
3 3 3 4 5 4 3 2 2 1 3 2 3 3 2 3 1 1 1 1 2 3 4 4 3 4 6 6 6 6 4 2 4 6 9 9 10 9 8 7 7 7 8 8 8 9 10 7 7 7 7 7 8 7
2 4 4 4 2 3 2 1 3 2 3 1 1 1 2 1 2 2 0 1 1 1 2 3 5 4 3 3 5 5 7 6 6 9 15 10 10 10 9 8 8 8 8 7 7 8 8 8 7 8 8 8 8 8
1 1 2 2 2 5 3 3 4 2 2 4 4 5 5 3 2 2 1 2 1 1 2 2 4 5 7 7 7 7 7 6 8 10 13 15 15 13 10 9 8 9 9 7 6 6 9 12 10 8 9 9 9 8
Wind_Direction
297 295 293 289 287 287 285 294 302 294 180 287 327 337 58 159 163 135 87 36 105 102 43 25 33 90 130 188 192 190 121 297 93 168 181 187 201 210 227 232 214 181 173 214 228 232 251 137 244 220 303 43 45 30
304 301 293 288 279 276 270 286 303 305 156 270 30 14 28 69 148 120 88 68 69 74 100 44 72 26 50 4 137 26 110 67 96 166 155 123 176 225 217 238 209 228 209 209 197 220 252 52 100 103 52 67 40 43
311 308 308 299 286 247 249 288 304 338 147 157 89 47 37 64 79 94 105 125 71 88 50 35 26 6 33 13 312 114 39 110 81 38 114 96 206 26 210 230 237 229 185 216 93 247 267 78 89 53 10 38 334 78
318 311 304 290 267 176 201 283 325 66 154 149 130 101 72 62 61 64 79 23 85 106 101 24 325 43 73 53 59 69 98 78 92 83 98 109 134 166 186 322 253 292 128 162 315 350 329 157 305 291 336 257 317 245
333 328 310 180 146 140 146 99 34 116 147 149 139 129 103 93 84 70 58 36 42 98 109 120 108 63 86 89 87 92 98 106 80 92 97 151 128 151 212 261 257 215 73 69 256 205 205 259 298 288 259 260 254 253
354 15 67 100 114 117 113 83 63 104 123 128 130 121 101 99 97 58 75 355 357 55 99 98 36 97 121 130 120 122 124 108 98 119 138 162 193 157 168 222 251 206 196 67 251 300 244 251 293 274 280 277 276 265
12 34 63 83 95 98 95 84 69 100 109 110 119 112 103 73 52 53 97 152 164 28 84 90 64 349 60 127 101 137 115 118 114 88 132 157 199 167 204 208 253 3 335 310 306 308 311 276 258 261 256 270 287 299
19 33 52 67 72 87 89 87 92 97 110 112 101 84 71 57 52 46 40 66 68 93 91 104 78 85 323 101 109 129 92 89 50 133 103 165 109 144 240 229 277 260 255 265 276 260 242 258 319 347 312 337 337 345
28 35 49 59 68 75 79 94 105 109 114 101 86 64 44 33 43 51 54 53 29 88 107 114 144 140 163 105 122 54 124 109 131 135 211 141 207 218 221 200 236 287 76 16 359 15 12 15 10 345 338 34 40 32
30 39 49 58 71 82 92 105 110 113 107 72 43 45 48 6 138 24 15 21 18 351 24 85 112 142 142 175 145 112 109 146 159 211 129 156 258 247 226 201 97 75 49 27 33 352 358 23 52 51 48 46 51 54
34 40 51 64 71 66 65 99 114 113 69 57 51 24 78 296 50 47 87 100 152 21 6 108 125 135 176 131 140 164 171 163 136 187 137 204 255 220 108 103 82 62 75 63 74 65 50 52 58 65 63 64 73 77
30 39 37 36 33 35 52 24 61 126 25 115 114 120 123 129 67 84 143 153 190 145 175 119 140 128 141 116 96 316 140 93 172 143 99 233 252 134 114 99 86 73 65 64 59 64 60 67 74 88 86 87 81 78
14 29 36 30 21 25 29 44 98 127 121 98 64 51 76 221 61 148 183 202 122 127 137 104 89 127 27 68 66 93 95 192 92 80 199 220 165 116 108 108 91 76 83 88 85 77 81 87 77 80 84 70 83 76
0 358 18 38 19 6 4 353 304 319 298 121 122 73 124 17 282 260 229 104 130 105 111 116 77 113 130 66 154 105 203 94 129 140 216 213 140 111 99 97 96 89 89 89 88 85 80 75 72 62 66 78 81 70
349 346 347 11 351 341 328 291 280 235 277 77 76 74 83 97 4 323 359 72 43 109 104 64 44 91 91 91 201 117 53 214 195 215 168 189 129 121 109 108 112 115 112 102 102 106 103 98 87 78 70 84 87 86
341 333 19 352 347 335 327 309 156 219 294 52 89 64 91 82 14 18 6 30 27 90 71 69 129 109 192 153 146 192 176 199 232 125 164 140 118 114 116 123 127 133 123 124 120 103 97 104 109 105 88 83 81 102
329 47 2 357 345 317 309 317 306 317 46 16 10 68 115 82 138 161 146 222 340 86 144 145 126 193 131 138 188 176 203 181 145 113 105 128 126 123 116 111 111 110 126 127 130 139 127 133 133 128 123 141 130 134
24 357 351 345 342 296 266 312 336 334 321 117 109 204 63 106 131 172 143 197 70 18 42 245 342 131 174 187 234 219 108 84 102 118 112 103 103 114 118 126 134 122 122 118 120 133 140 130 112 122 135 146 98 62
316 312 315 321 330 299 282 302 33 270 224 121 94 109 124 156 111 119 132 159 108 67 51 358 240 209 219 214 147 124 146 136 132 108 96 110 125 123 130 128 119 114 113 131 141 108 83 82 83 73 63 59 89 57
302 291 285 295 315 286 281 302 62 302 207 203 121 146 137 159 145 104 69 59 108 120 135 219 221 220 142 249 143 151 138 130 126 108 83 99 109 113 120 125 117 118 123 114 114 104 110 93 80 79 76 72 90 72
307 9 338 215 208 252 295 261 205 220 214 121 170 146 191 111 119 139 165 211 77 203 224 208 205 207 72 75 64 104 121 130 144 138 148 133 124 134 148 125 133 128 128 120 116 95 96 111 122 97 89 80 90 119
296 317 264 192 277 240 244 243 229 269 109 193 131 136 111 125 174 193 164 129 229 221 194 176 208 150 147 155 167 133 138 124 116 114 115 129 157 153 150 156 138 143 141 145 141 133 117 119 113 118 116 129 101 86
289 221 253 200 227 338 259 342 263 214 159 212 113 170 228 195 200 140 210 204 229 205 191 200 233 195 146 150 122 111 117 120 122 130 133 151 147 131 128 132 132 138 134 120 118 114 124 112 108 115 121 122 118 80
283 275 328 246 188 237 202 283 268 280 219 164 145 188 228 217 152 135 231 211 225 183 177 202 153 92 72 108 120 157 163 119 118 116 137 145 135 139 138 138 125 131 140 131 123 128 120 122 119 107 105 100 99 112
179 260 143 250 269 136 185 229 244 223 216 184 173 192 236 93 125 245 241 255 224 192 183 176 152 154 145 155 131 155 182 136 151 148 150 138 119 108 107 112 113 133 134 128 128 124 137 117 109 111 96 110 118 114
211 225 172 202 238 169 195 186 209 211 139 131 205 127 52 94 91 256 251 324 351 78 166 164 153 142 152 160 150 155 186 147 141 144 160 144 152 151 153 149 143 141 141 141 142 145 142 122 118 110 99 103 118 115
216 224 190 232 206 203 274 219 193 137 167 180 162 113 106 157 236 249 88 4 39 334 355 40 158 152 164 170 143 120 120 120 130 127 110 112 126 149 154 158 168 166 138 132 134 137 136 133 134 131 130 99 117 128
236 239 178 225 243 207 214 318 139 167 193 192 111 163 176 199 233 10 87 324 8 16 45 39 26 44 72 102 122 113 100 103 99 96 84 60 49 57 94 98 115 121 118 117 123 123 130 134 130 128 122 120 99 94
245 233 123 156 203 259 209 188 216 225 200 135 154 191 218 73 61 102 60 67 327 46 102 71 61 70 71 63 68 108 135 138 139 140 130 129 107 47 85 107 104 97 97 100 100 117 124 120 122 124 125 121 129 114
247 201 157 148 151 208 239 179 137 357 6 76 106 76 74 88 83 73 114 134 157 168 125 117 124 123 121 123 120 104 40 66 139 145 153 159 161 139 125 117 111 107 102 102 102 102 103 105 106 90 95 101 99 91
206 188 189 172 188 222 180 123 71 33 16 38 34 89 79 111 124 120 195 185 150 126 126 132 128 132 132 140 145 133 124 86 108 109 114 122 135 132 130 127 123 116 118 121 120 122 122 117 122 124 122 124 127 128
194 202 169 179 199 101 151 133 144 222 168 116 255 137 151 162 212 121 107 112 125 150 158 154 156 156 136 121 103 89 111 122 121 128 127 131 131 132 132 130 124 123 125 120 118 133 131 129 125 126 135 141 134 129
191 218 208 208 150 156 174 181 176 231 184 176 203 180 200 191 154 93 42 26 358 238 170 127 117 129 134 131 122 120 115 112 117 120 125 128 131 129 125 128 131 136 135 133 131 133 129 125 131 137 125 125 135 139